TimeCDT,TemperatureF,Dew PointF,Humidity,Sea Level PressureIn,VisibilityMPH,Wind Direction,Wind SpeedMPH,Gust SpeedMPH,PrecipitationIn,Events,Conditions,WindDirDegrees,DateUTC
12:53 AM,48.9,46.9,93,30.16,2.0,West,3.5,-,N/A,,Clear,270,2013-08-16 05:53:00
1:01 AM,48.2,46.4,93,30.16,5.0,Calm,Calm,-,N/A,,Clear,0,2013-08-16 06:01:00
1:53 AM,48.9,46.9,93,30.16,4.0,Calm,Calm,-,N/A,,Clear,0,2013-08-16 06:53:00
1:55 AM,48.2,46.4,93,30.16,1.5,Calm,Calm,-,N/A,,Clear,0,2013-08-16 06:55:00
2:05 AM,48.2,46.4,93,30.16,0.8,West,3.5,-,N/A,,Clear,260,2013-08-16 07:05:00
2:53 AM,46.9,46.0,97,30.16,1.2,West,3.5,-,N/A,,Clear,270,2013-08-16 07:53:00
2:56 AM,48.2,46.4,93,30.16,3.0,West,4.6,-,N/A,,Clear,260,2013-08-16 07:56:00
3:53 AM,50.0,48.9,96,30.16,9.0,Calm,Calm,-,N/A,,Clear,0,2013-08-16 08:53:00
4:46 AM,46.4,46.4,100,30.17,1.5,Calm,Calm,-,N/A,,Clear,0,2013-08-16 09:46:00
4:53 AM,48.0,46.9,96,30.17,0.5,Calm,Calm,-,N/A,Fog,Fog,0,2013-08-16 09:53:00
4:55 AM,48.2,46.4,93,30.17,0.2,Calm,Calm,-,N/A,Fog,Fog,0,2013-08-16 09:55:00
5:25 AM,46.4,46.4,100,30.17,1.0,Calm,Calm,-,N/A,,Mist,0,2013-08-16 10:25:00
5:28 AM,46.4,46.4,100,30.17,2.0,Calm,Calm,-,N/A,,Partly Cloudy,0,2013-08-16 10:28:00
5:39 AM,44.6,44.6,100,30.17,0.8,Calm,Calm,-,N/A,,Mist,0,2013-08-16 10:39:00
5:50 AM,46.4,44.6,93,30.17,0.2,Calm,Calm,-,N/A,Fog,Fog,0,2013-08-16 10:50:00
5:53 AM,46.0,45.0,96,30.18,0.2,Calm,Calm,-,N/A,Fog,Fog,0,2013-08-16 10:53:00
6:39 AM,46.4,46.4,100,30.18,1.2,Calm,Calm,-,N/A,,Partly Cloudy,0,2013-08-16 11:39:00
6:42 AM,48.2,46.4,93,30.18,4.0,Calm,Calm,-,N/A,,Partly Cloudy,0,2013-08-16 11:42:00
6:53 AM,48.0,46.9,96,30.19,10.0,Calm,Calm,-,N/A,,Partly Cloudy,0,2013-08-16 11:53:00
7:53 AM,57.0,53.1,87,30.20,10.0,Calm,Calm,-,N/A,,Clear,0,2013-08-16 12:53:00
8:53 AM,64.0,55.0,73,30.20,10.0,Calm,Calm,-,N/A,,Clear,0,2013-08-16 13:53:00
9:53 AM,69.1,55.0,61,30.20,10.0,WNW,3.5,-,N/A,,Clear,300,2013-08-16 14:53:00
10:53 AM,73.0,53.1,49,30.21,10.0,West,4.6,-,N/A,,Clear,270,2013-08-16 15:53:00
11:53 AM,72.0,50.0,46,30.21,10.0,Calm,Calm,-,N/A,,Mostly Cloudy,0,2013-08-16 16:53:00
12:53 PM,77.0,48.0,36,30.20,10.0,West,4.6,-,N/A,,Clear,270,2013-08-16 17:53:00
1:53 PM,75.9,48.9,38,30.19,10.0,WSW,3.5,-,N/A,,Scattered Clouds,240,2013-08-16 18:53:00
2:53 PM,77.0,50.0,39,30.19,10.0,Variable,5.8,-,N/A,,Mostly Cloudy,0,2013-08-16 19:53:00
3:53 PM,78.1,51.1,39,30.18,10.0,West,5.8,-,N/A,,Clear,260,2013-08-16 20:53:00
4:53 PM,75.9,50.0,40,30.18,10.0,Variable,3.5,-,N/A,,Clear,0,2013-08-16 21:53:00
5:53 PM,77.0,51.1,40,30.19,10.0,WSW,5.8,-,N/A,,Clear,240,2013-08-16 22:53:00
6:53 PM,73.0,54.0,51,30.19,10.0,Calm,Calm,-,N/A,,Clear,0,2013-08-16 23:53:00
7:53 PM,63.0,55.9,78,30.19,10.0,Calm,Calm,-,N/A,,Clear,0,2013-08-17 00:53:00
8:53 PM,57.9,54.0,87,30.20,10.0,Calm,Calm,-,N/A,,Clear,0,2013-08-17 01:53:00
9:53 PM,57.0,55.0,93,30.20,9.0,Calm,Calm,-,N/A,,Clear,0,2013-08-17 02:53:00
10:53 PM,55.0,54.0,96,30.21,1.8,Calm,Calm,-,N/A,,Clear,0,2013-08-17 03:53:00
11:12 PM,53.6,53.6,100,30.21,0.8,Calm,Calm,-,N/A,,Clear,0,2013-08-17 04:12:00
11:16 PM,53.6,51.8,94,30.21,2.0,Calm,Calm,-,N/A,,Clear,0,2013-08-17 04:16:00
11:31 PM,53.6,51.8,94,30.21,1.5,Calm,Calm,-,N/A,,Clear,0,2013-08-17 04:31:00
11:37 PM,51.8,51.8,100,30.21,0.5,Calm,Calm,-,N/A,Fog,Fog,0,2013-08-17 04:37:00
11:45 PM,51.8,50.0,94,30.21,0.2,Calm,Calm,-,N/A,Fog,Fog,0,2013-08-17 04:45:00
11:53 PM,52.0,51.1,97,30.22,0.2,Calm,Calm,-,N/A,Fog,Fog,0,2013-08-17 04:53:00